| time (UTC) | temp F | wind direction | speed MPH | gust MPH | rain 1hr in | rain 24hr in | rain mn in | humidity % | barometer mb |
| 20260903030655 | 96 | 275 | 3.0 | 4.0 | 0.00 | 0.00 | 0.00 | 34 | 1014.0 |
| 20260903030150 | 96 | 66 | 1.0 | 3.0 | 0.00 | 0.00 | 0.00 | 35 | 1013.9 |
| 20260903025645 | 96 | 258 | 0.0 | 3.0 | 0.00 | 0.00 | 0.00 | 34 | 1013.7 |
| 20260903025141 | 96 | 299 | 1.0 | 6.0 | 0.00 | 0.00 | 0.00 | 34 | 1013.9 |
| 20260903024636 | 96 | 241 | 2.0 | 6.0 | 0.00 | 0.00 | 0.00 | 34 | 1014.0 |
| 20260903024135 | 96 | 259 | 3.0 | 6.0 | 0.00 | 0.00 | 0.00 | 33 | 1013.8 |
| 20260903023631 | 96 | 259 | 4.0 | 6.0 | 0.00 | 0.00 | 0.00 | 33 | 1013.8 |
| 20260903023126 | 96 | 235 | 5.0 | 8.0 | 0.00 | 0.00 | 0.00 | 33 | 1013.8 |
| 20260903022620 | 97 | 282 | 3.0 | 8.0 | 0.00 | 0.00 | 0.00 | 33 | 1013.6 |
| 20260903022119 | 97 | 237 | 2.0 | 3.0 | 0.00 | 0.00 | 0.00 | 34 | 1013.7 |
| 20260903021614 | 97 | 267 | 3.0 | 6.0 | 0.00 | 0.00 | 0.00 | 33 | 1013.6 |
| 20260903021113 | 97 | 322 | 2.0 | 8.0 | 0.00 | 0.00 | 0.00 | 33 | 1013.5 |
| 20260903020609 | 97 | 226 | 3.0 | 5.0 | 0.00 | 0.00 | 0.00 | 33 | 1013.7 |
| 20260903020104 | 97 | 254 | 4.0 | 9.0 | 0.00 | 0.00 | 0.00 | 32 | 1013.6 |
| 20260903015600 | 97 | 269 | 3.0 | 8.0 | 0.00 | 0.00 | 0.00 | 33 | 1013.6 |
| 20260903015055 | 97 | 215 | 2.0 | 5.0 | 0.00 | 0.00 | 0.00 | 33 | 1013.6 |
| 20260903014554 | 97 | 278 | 6.0 | 10.0 | 0.00 | 0.00 | 0.00 | 33 | 1013.4 |
| 20260903014049 | 97 | 267 | 4.0 | 7.0 | 0.00 | 0.00 | 0.00 | 33 | 1013.5 |
| 20260903013549 | 97 | 297 | 0.0 | 4.0 | 0.00 | 0.00 | 0.00 | 34 | 1013.3 |
| 20260903013043 | 97 | 238 | 1.0 | 4.0 | 0.00 | 0.00 | 0.00 | 33 | 1013.4 |
| 20260903012537 | 98 | 237 | 2.0 | 7.0 | 0.00 | 0.00 | 0.00 | 33 | 1013.4 |
| 20260903012036 | 98 | 239 | 4.0 | 6.0 | 0.00 | 0.00 | 0.00 | 33 | 1013.3 |
| 20260903011536 | 98 | 261 | 2.0 | 5.0 | 0.00 | 0.00 | 0.00 | 32 | 1013.2 |
| 20260903011031 | 98 | 191 | 2.0 | 4.0 | 0.00 | 0.00 | 0.00 | 32 | 1013.4 |
| 20260903010526 | 99 | 232 | 3.0 | 8.0 | 0.00 | 0.00 | 0.00 | 32 | 1013.3 |
| 20260903010026 | 101 | 226 | 4.0 | 6.0 | 0.00 | 0.00 | 0.00 | 31 | 1013.5 |
| 20260903005526 | 101 | 252 | 2.0 | 4.0 | 0.00 | 0.00 | 0.00 | 31 | 1013.3 |
| 20260903005021 | 101 | 318 | 3.0 | 4.0 | 0.00 | 0.00 | 0.00 | 31 | 1013.5 |
| 20260903004521 | 101 | 333 | 2.0 | 6.0 | 0.00 | 0.00 | 0.00 | 30 | 1013.2 |
| 20260903004016 | 101 | 269 | 4.0 | 6.0 | 0.00 | 0.00 | 0.00 | 31 | 1013.4 |
| 20260903003512 | 100 | 318 | 3.0 | 4.0 | 0.00 | 0.00 | 0.00 | 31 | 1013.4 |
| 20260903003008 | 100 | 304 | 4.0 | 6.0 | 0.00 | 0.00 | 0.00 | 31 | 1013.2 |
| 20260903002506 | 100 | 269 | 2.0 | 8.0 | 0.00 | 0.00 | 0.00 | 31 | 1013.5 |
| 20260903002001 | 101 | 268 | 5.0 | 9.0 | 0.00 | 0.00 | 0.00 | 30 | 1013.4 |
| 20260903001456 | 100 | 232 | 4.0 | 7.0 | 0.00 | 0.00 | 0.00 | 30 | 1013.4 |
| 20260903000950 | 99 | 266 | 4.0 | 11.0 | 0.00 | 0.00 | 0.00 | 31 | 1013.6 |
| 20260903000447 | 100 | 274 | 7.0 | 11.0 | 0.00 | 0.00 | 0.00 | 30 | 1013.6 |
| 20260902235943 | 102 | 198 | 1.0 | 3.0 | 0.00 | 0.00 | 0.00 | 30 | 1013.5 |
| 20260902235438 | 101 | 231 | 3.0 | 13.0 | 0.00 | 0.00 | 0.00 | 32 | 1013.4 |
| 20260902234932 | 101 | 241 | 2.0 | 5.0 | 0.00 | 0.00 | 0.00 | 29 | 1013.8 |
| 20260902234428 | 102 | 206 | 3.0 | 5.0 | 0.00 | 0.00 | 0.00 | 31 | 1013.7 |
| 20260902233927 | 101 | 303 | 4.0 | 8.0 | 0.00 | 0.00 | 0.00 | 30 | 1013.8 |
| 20260902233421 | 103 | 342 | 1.0 | 5.0 | 0.00 | 0.00 | 0.00 | 30 | 1013.7 |
| 20260902232920 | 102 | 290 | 3.0 | 9.0 | 0.00 | 0.00 | 0.00 | 30 | 1013.5 |
| 20260902232415 | 101 | 219 | 2.0 | 7.0 | 0.00 | 0.00 | 0.00 | 31 | 1013.7 |
| 20260902231914 | 99 | 150 | 1.0 | 4.0 | 0.00 | 0.00 | 0.00 | 32 | 1013.8 |
| 20260902231410 | 100 | 245 | 3.0 | 6.0 | 0.00 | 0.00 | 0.00 | 32 | 1014.2 |
| 20260902230904 | 100 | 232 | 6.0 | 9.0 | 0.00 | 0.00 | 0.00 | 30 | 1014.2 |
| 20260902230404 | 102 | 236 | 6.0 | 10.0 | 0.00 | 0.00 | 0.00 | 28 | 1014.1 |
| 20260902225857 | 102 | 241 | 6.0 | 18.0 | 0.00 | 0.00 | 0.00 | 29 | 1014.2 |
| 20260902225353 | 102 | 312 | 4.0 | 8.0 | 0.00 | 0.00 | 0.00 | 28 | 1014.2 |
| 20260902224851 | 102 | 160 | 5.0 | 8.0 | 0.00 | 0.00 | 0.00 | 29 | 1014.2 |
| 20260902224346 | 102 | 228 | 0.0 | 8.0 | 0.00 | 0.00 | 0.00 | 31 | 1014.4 |
| 20260902223843 | 104 | 273 | 3.0 | 6.0 | 0.00 | 0.00 | 0.00 | 28 | 1014.4 |
| 20260902223342 | 101 | 38 | 0.0 | 5.0 | 0.00 | 0.00 | 0.00 | 29 | 1014.4 |
| 20260902222837 | 103 | 239 | 0.0 | 5.0 | 0.00 | 0.00 | 0.00 | 27 | 1014.5 |
| 20260902222336 | 102 | 236 | 6.0 | 9.0 | 0.00 | 0.00 | 0.00 | 29 | 1014.4 |
| 20260902221831 | 102 | 231 | 6.0 | 6.0 | 0.00 | 0.00 | 0.00 | 28 | 1014.8 |
| 20260902221330 | 102 | 350 | 4.0 | 5.0 | 0.00 | 0.00 | 0.00 | 27 | 1014.7 |
| 20260902220825 | 102 | 224 | 4.0 | 6.0 | 0.00 | 0.00 | 0.00 | 27 | 1014.8 |
| 20260902220324 | 102 | 327 | 6.0 | 8.0 | 0.00 | 0.00 | 0.00 | 28 | 1015.0 |
| 20260902215820 | 101 | 332 | 8.0 | 8.0 | 0.00 | 0.00 | 0.00 | 28 | 1015.1 |
| 20260902215314 | 102 | 268 | 5.0 | 10.0 | 0.00 | 0.00 | 0.00 | 29 | 1014.9 |
| 20260902214810 | 101 | 202 | 4.0 | 6.0 | 0.00 | 0.00 | 0.00 | 30 | 1015.2 |
| 20260902214309 | 102 | 205 | 2.0 | 5.0 | 0.00 | 0.00 | 0.00 | 32 | 1015.0 |
| 20260902213805 | 102 | 27 | 1.0 | 3.0 | 0.00 | 0.00 | 0.00 | 28 | 1015.2 |
| 20260902213300 | 100 | 235 | 3.0 | 9.0 | 0.00 | 0.00 | 0.00 | 31 | 1015.1 |
| 20260902212759 | 100 | 271 | 2.0 | 6.0 | 0.00 | 0.00 | 0.00 | 30 | 1015.3 |
| 20260902212256 | 101 | 148 | 4.0 | 7.0 | 0.00 | 0.00 | 0.00 | 30 | 1015.3 |
| 20260902211751 | 100 | 281 | 3.0 | 5.0 | 0.00 | 0.00 | 0.00 | 28 | 1015.4 |
| 20260902211248 | 101 | 242 | 9.0 | 10.0 | 0.00 | 0.00 | 0.00 | 29 | 1015.4 |
| 20260902210747 | 101 | 269 | 4.0 | 7.0 | 0.00 | 0.00 | 0.00 | 29 | 1015.5 |
| 20260902210242 | 100 | 231 | 8.0 | 10.0 | 0.00 | 0.00 | 0.00 | 31 | 1015.5 |
| 20260902205740 | 100 | 108 | 1.0 | 5.0 | 0.00 | 0.00 | 0.00 | 31 | 1015.8 |
| 20260902205236 | 100 | 236 | 2.0 | 9.0 | 0.00 | 0.00 | 0.00 | 31 | 1015.7 |
| 20260902204731 | 100 | 220 | 4.0 | 10.0 | 0.00 | 0.00 | 0.00 | 33 | 1016.2 |
| 20260902204226 | 100 | 240 | 2.0 | 6.0 | 0.00 | 0.00 | 0.00 | 33 | 1016.1 |
| 20260902203721 | 100 | 227 | 2.0 | 4.0 | 0.00 | 0.00 | 0.00 | 29 | 1016.2 |
| 20260902203216 | 100 | 254 | 3.0 | 8.0 | 0.00 | 0.00 | 0.00 | 30 | 1016.4 |
| 20260902202716 | 99 | 153 | 0.0 | 10.0 | 0.00 | 0.00 | 0.00 | 31 | 1016.2 |
| 20260902202213 | 99 | 203 | 2.0 | 10.0 | 0.00 | 0.00 | 0.00 | 34 | 1016.3 |
| 20260902201709 | 100 | 146 | 2.0 | 3.0 | 0.00 | 0.00 | 0.00 | 33 | 1016.4 |
| 20260902201208 | 99 | 197 | 5.0 | 7.0 | 0.00 | 0.00 | 0.00 | 33 | 1016.7 |
| 20260902200703 | 99 | 223 | 4.0 | 6.0 | 0.00 | 0.00 | 0.00 | 32 | 1016.5 |
| 20260902200159 | 99 | 203 | 3.0 | 7.0 | 0.00 | 0.00 | 0.00 | 32 | 1016.8 |
| 20260902195654 | 99 | 203 | 3.0 | 9.0 | 0.00 | 0.00 | 0.00 | 32 | 1016.8 |
| 20260902195154 | 98 | 226 | 3.0 | 5.0 | 0.00 | 0.00 | 0.00 | 33 | 1017.1 |
| 20260902194647 | 97 | 239 | 3.0 | 7.0 | 0.00 | 0.00 | 0.00 | 31 | 1017.0 |
| 20260902194143 | 98 | 261 | 5.0 | 6.0 | 0.00 | 0.00 | 0.00 | 33 | 1017.0 |
| 20260902193638 | 98 | 228 | 2.0 | 6.0 | 0.00 | 0.00 | 0.00 | 34 | 1017.2 |
| 20260902193133 | 97 | 232 | 3.0 | 10.0 | 0.00 | 0.00 | 0.00 | 38 | 1017.1 |
| 20260902192631 | 97 | 1 | 1.0 | 5.0 | 0.00 | 0.00 | 0.00 | 34 | 1017.3 |
| 20260902192130 | 96 | 219 | 3.0 | 5.0 | 0.00 | 0.00 | 0.00 | 34 | 1017.6 |
| 20260902191625 | 96 | 217 | 0.0 | 6.0 | 0.00 | 0.00 | 0.00 | 38 | 1017.7 |
| 20260902191119 | 97 | 225 | 2.0 | 7.0 | 0.00 | 0.00 | 0.00 | 37 | 1017.7 |
| 20260902190615 | 97 | 176 | 2.0 | 5.0 | 0.00 | 0.00 | 0.00 | 37 | 1017.6 |
| 20260902190110 | 97 | 295 | 4.0 | 5.0 | 0.00 | 0.00 | 0.00 | 33 | 1017.6 |
| 20260902185606 | 97 | 153 | 1.0 | 3.0 | 0.00 | 0.00 | 0.00 | 34 | 1017.8 |
| 20260902185101 | 97 | 213 | 2.0 | 7.0 | 0.00 | 0.00 | 0.00 | 37 | 1017.9 |
| 20260902184556 | 96 | 268 | 3.0 | 12.0 | 0.00 | 0.00 | 0.00 | 36 | 1018.0 |
| 20260902184051 | 96 | 205 | 3.0 | 5.0 | 0.00 | 0.00 | 0.00 | 37 | 1017.9 |
| 20260902183548 | 96 | 232 | 5.0 | 8.0 | 0.00 | 0.00 | 0.00 | 37 | 1018.0 |
| 20260902183044 | 97 | 193 | 0.0 | 5.0 | 0.00 | 0.00 | 0.00 | 35 | 1018.1 |
| 20260902182540 | 96 | 158 | 5.0 | 8.0 | 0.00 | 0.00 | 0.00 | 37 | 1018.2 |
| 20260902182036 | 95 | 241 | 1.0 | 9.0 | 0.00 | 0.00 | 0.00 | 39 | 1018.3 |
| 20260902181532 | 96 | 217 | 2.0 | 5.0 | 0.00 | 0.00 | 0.00 | 36 | 1018.4 |
| 20260902181026 | 96 | 258 | 0.0 | 5.0 | 0.00 | 0.00 | 0.00 | 40 | 1018.4 |
| 20260902180526 | 95 | 241 | 4.0 | 9.0 | 0.00 | 0.00 | 0.00 | 37 | 1018.4 |
| 20260902180022 | 96 | 254 | 4.0 | 10.0 | 0.00 | 0.00 | 0.00 | 38 | 1018.4 |
| 20260902175516 | 96 | 258 | 5.0 | 9.0 | 0.00 | 0.00 | 0.00 | 35 | 1018.5 |
| 20260902175013 | 95 | 244 | 5.0 | 9.0 | 0.00 | 0.00 | 0.00 | 35 | 1018.7 |
| 20260902174509 | 95 | 224 | 1.0 | 6.0 | 0.00 | 0.00 | 0.00 | 38 | 1018.4 |
| 20260902174004 | 95 | 247 | 4.0 | 9.0 | 0.00 | 0.00 | 0.00 | 38 | 1018.5 |
| 20260902173503 | 94 | 245 | 7.0 | 7.0 | 0.00 | 0.00 | 0.00 | 39 | 1018.5 |
| 20260902172958 | 95 | 218 | 4.0 | 7.0 | 0.00 | 0.00 | 0.00 | 40 | 1018.5 |
| 20260902172457 | 95 | 236 | 2.0 | 4.0 | 0.00 | 0.00 | 0.00 | 38 | 1018.7 |
| 20260902171953 | 94 | 199 | 3.0 | 5.0 | 0.00 | 0.00 | 0.00 | 38 | 1018.7 |
| 20260902171448 | 95 | 192 | 3.0 | 6.0 | 0.00 | 0.00 | 0.00 | 37 | 1018.6 |
| 20260902170944 | 95 | 217 | 1.0 | 6.0 | 0.00 | 0.00 | 0.00 | 39 | 1018.7 |
| 20260902170439 | 95 | 220 | 2.0 | 4.0 | 0.00 | 0.00 | 0.00 | 43 | 1018.3 |
| 20260902165935 | 94 | 214 | 4.0 | 6.0 | 0.00 | 0.00 | 0.00 | 42 | 1018.6 |
| 20260902165434 | 94 | 216 | 1.0 | 4.0 | 0.00 | 0.00 | 0.00 | 41 | 1018.7 |
| 20260902164928 | 93 | 242 | 5.0 | 7.0 | 0.00 | 0.00 | 0.00 | 41 | 1018.5 |
| 20260902164424 | 93 | 213 | 0.0 | 4.0 | 0.00 | 0.00 | 0.00 | 48 | 1018.7 |
| 20260902163922 | 92 | 250 | 3.0 | 8.0 | 0.00 | 0.00 | 0.00 | 47 | 1018.6 |
| 20260902163418 | 92 | 232 | 4.0 | 7.0 | 0.00 | 0.00 | 0.00 | 47 | 1018.9 |
| 20260902162915 | 92 | 158 | 2.0 | 5.0 | 0.00 | 0.00 | 0.00 | 51 | 1018.7 |
| 20260902162411 | 91 | 164 | 0.0 | 6.0 | 0.00 | 0.00 | 0.00 | 52 | 1018.9 |
| 20260902161906 | 90 | 208 | 2.0 | 4.0 | 0.00 | 0.00 | 0.00 | 53 | 1018.6 |
| 20260902161401 | 91 | 258 | 3.0 | 6.0 | 0.00 | 0.00 | 0.00 | 53 | 1018.9 |
| 20260902160858 | 90 | 119 | 1.0 | 5.0 | 0.00 | 0.00 | 0.00 | 55 | 1018.9 |
| 20260902160353 | 90 | 225 | 1.0 | 5.0 | 0.00 | 0.00 | 0.00 | 56 | 1018.7 |
| 20260902155851 | 90 | 166 | 3.0 | 5.0 | 0.00 | 0.00 | 0.00 | 55 | 1018.6 |
| 20260902155350 | 89 | 232 | 2.0 | 4.0 | 0.00 | 0.00 | 0.00 | 56 | 1018.6 |
| 20260902154845 | 90 | 224 | 2.0 | 5.0 | 0.00 | 0.00 | 0.00 | 55 | 1018.3 |
| 20260902154341 | 90 | 250 | 3.0 | 6.0 | 0.00 | 0.00 | 0.00 | 55 | 1018.6 |
| 20260902153839 | 90 | 145 | 1.0 | 4.0 | 0.00 | 0.00 | 0.00 | 54 | 1018.6 |
| 20260902153339 | 89 | 167 | 2.0 | 5.0 | 0.00 | 0.00 | 0.00 | 55 | 1018.6 |
| 20260902152835 | 89 | 57 | 0.0 | 4.0 | 0.00 | 0.00 | 0.00 | 57 | 1018.4 |
| 20260902152331 | 89 | 178 | 3.0 | 5.0 | 0.00 | 0.00 | 0.00 | 56 | 1018.3 |
| 20260902151826 | 89 | 214 | 1.0 | 4.0 | 0.00 | 0.00 | 0.00 | 58 | 1018.5 |
| 20260902151321 | 87 | 202 | 0.0 | 5.0 | 0.00 | 0.00 | 0.00 | 59 | 1018.2 |
| 20260902150816 | 87 | 165 | 3.0 | 6.0 | 0.00 | 0.00 | 0.00 | 59 | 1018.3 |
| 20260902150312 | 87 | 190 | 3.0 | 6.0 | 0.00 | 0.00 | 0.00 | 58 | 1018.5 |
| 20260902145811 | 87 | 208 | 2.0 | 5.0 | 0.00 | 0.00 | 0.00 | 60 | 1018.4 |
| 20260902145307 | 87 | 180 | 1.0 | 5.0 | 0.00 | 0.00 | 0.00 | 59 | 1018.4 |
| 20260902144802 | 88 | 213 | 0.0 | 3.0 | 0.00 | 0.00 | 0.00 | 57 | 1018.3 |
| 20260902144258 | 87 | 204 | 1.0 | 3.0 | 0.00 | 0.00 | 0.00 | 58 | 1018.2 |
| 20260902143753 | 87 | 204 | 2.0 | 6.0 | 0.00 | 0.00 | 0.00 | 58 | 1018.4 |
| 20260902143247 | 87 | 218 | 2.0 | 3.0 | 0.00 | 0.00 | 0.00 | 57 | 1018.4 |
| 20260902142743 | 87 | 164 | 0.0 | 3.0 | 0.00 | 0.00 | 0.00 | 59 | 1018.3 |
| 20260902142238 | 86 | 177 | 2.0 | 3.0 | 0.00 | 0.00 | 0.00 | 60 | 1018.1 |
| 20260902141733 | 86 | 141 | 0.0 | 2.0 | 0.00 | 0.00 | 0.00 | 61 | 1018.1 |
| 20260902141229 | 85 | 117 | 0.0 | 2.0 | 0.00 | 0.00 | 0.00 | 63 | 1018.2 |
| 20260902140724 | 85 | 185 | 0.0 | 1.0 | 0.00 | 0.00 | 0.00 | 63 | 1018.2 |
| 20260902140219 | 84 | 154 | 0.0 | 2.0 | 0.00 | 0.00 | 0.00 | 66 | 1018.2 |
| 20260902135718 | 83 | 212 | 0.0 | 1.0 | 0.00 | 0.00 | 0.00 | 68 | 1018.0 |
| 20260902135214 | 83 | 129 | 0.0 | 0.0 | 0.00 | 0.00 | 0.00 | 68 | 1018.1 |
| 20260902134713 | 82 | 129 | 0.0 | 0.0 | 0.00 | 0.00 | 0.00 | 71 | 1018.0 |
| 20260902134209 | 81 | 37 | 0.0 | 0.0 | 0.00 | 0.00 | 0.00 | 73 | 1017.8 |
| 20260902133708 | 80 | 37 | 0.0 | 0.0 | 0.00 | 0.00 | 0.00 | 74 | 1017.6 |
| 20260902133203 | 79 | 35 | 0.0 | 2.0 | 0.00 | 0.00 | 0.00 | 75 | 1017.6 |
| 20260902132658 | 79 | 19 | 0.0 | 2.0 | 0.00 | 0.00 | 0.00 | 76 | 1017.6 |
| 20260902132153 | 78 | 62 | 0.0 | 0.0 | 0.00 | 0.00 | 0.00 | 76 | 1017.4 |
| 20260902131649 | 78 | 62 | 0.0 | 0.0 | 0.00 | 0.00 | 0.00 | 76 | 1017.4 |
| 20260902131144 | 78 | 129 | 0.0 | 0.0 | 0.00 | 0.00 | 0.00 | 76 | 1017.4 |
| 20260902130640 | 78 | 135 | 0.0 | 1.0 | 0.00 | 0.00 | 0.00 | 75 | 1017.4 |
| 20260902130135 | 78 | 117 | 0.0 | 1.0 | 0.00 | 0.00 | 0.00 | 74 | 1017.5 |
| 20260902125631 | 78 | 117 | 0.0 | 0.0 | 0.00 | 0.00 | 0.00 | 74 | 1017.3 |
| 20260902125126 | 78 | 91 | 1.0 | 2.0 | 0.00 | 0.00 | 0.00 | 74 | 1017.5 |
| 20260902124623 | 78 | 309 | 0.0 | 2.0 | 0.00 | 0.00 | 0.00 | 74 | 1017.1 |
| 20260902124122 | 78 | 333 | 0.0 | 1.0 | 0.00 | 0.00 | 0.00 | 76 | 1017.3 |
| 20260902123618 | 77 | 75 | 0.0 | 0.0 | 0.00 | 0.00 | 0.00 | 75 | 1017.2 |
| 20260902123113 | 78 | 60 | 0.0 | 1.0 | 0.00 | 0.00 | 0.00 | 75 | 1017.1 |
| 20260902122612 | 78 | 28 | 0.0 | 2.0 | 0.00 | 0.00 | 0.00 | 74 | 1017.0 |
| 20260902122109 | 78 | 53 | 0.0 | 0.0 | 0.00 | 0.00 | 0.00 | 74 | 1016.9 |
| 20260902121608 | 78 | 343 | 0.0 | 2.0 | 0.00 | 0.00 | 0.00 | 74 | 1016.9 |
| 20260902121103 | 78 | 164 | 0.0 | 1.0 | 0.00 | 0.00 | 0.00 | 73 | 1017.0 |
| 20260902120559 | 78 | 93 | 1.0 | 2.0 | 0.00 | 0.00 | 0.00 | 74 | 1016.9 |
| 20260902120055 | 78 | 50 | 0.0 | 0.0 | 0.00 | 0.00 | 0.00 | 73 | 1017.0 |
| 20260902115550 | 78 | 309 | 0.0 | 1.0 | 0.00 | 0.00 | 0.00 | 73 | 1016.7 |
| 20260902115047 | 78 | 99 | 0.0 | 0.0 | 0.00 | 0.00 | 0.00 | 72 | 1016.8 |
| 20260902114542 | 79 | 326 | 0.0 | 0.0 | 0.00 | 0.00 | 0.00 | 71 | 1016.8 |
| 20260902114036 | 79 | 322 | 0.0 | 1.0 | 0.00 | 0.00 | 0.00 | 72 | 1016.8 |
| 20260902113533 | 79 | 331 | 0.0 | 2.0 | 0.00 | 0.00 | 0.00 | 72 | 1016.8 |
| 20260902113027 | 79 | 69 | 0.0 | 0.0 | 0.00 | 0.00 | 0.00 | 71 | 1016.9 |
| 20260902112523 | 79 | 69 | 0.0 | 0.0 | 0.00 | 0.00 | 0.00 | 71 | 1016.8 |
| 20260902112020 | 79 | 89 | 0.0 | 0.0 | 0.00 | 0.00 | 0.00 | 70 | 1016.8 |
| 20260902111515 | 79 | 89 | 0.0 | 0.0 | 0.00 | 0.00 | 0.00 | 70 | 1016.7 |
| 20260902111010 | 79 | 89 | 0.0 | 0.0 | 0.00 | 0.00 | 0.00 | 70 | 1016.6 |
| 20260902110506 | 79 | 37 | 0.0 | 0.0 | 0.00 | 0.00 | 0.00 | 70 | 1016.7 |
| 20260902110001 | 80 | 37 | 0.0 | 0.0 | 0.00 | 0.00 | 0.00 | 70 | 1016.6 |
| 20260902105456 | 79 | 9 | 1.0 | 1.0 | 0.00 | 0.00 | 0.00 | 70 | 1016.8 |
| 20260902104950 | 79 | 336 | 0.0 | 0.0 | 0.00 | 0.00 | 0.00 | 69 | 1016.5 |
| 20260902104446 | 79 | 336 | 0.0 | 0.0 | 0.00 | 0.00 | 0.00 | 70 | 1016.7 |
| 20260902103946 | 79 | 336 | 0.0 | 0.0 | 0.00 | 0.00 | 0.00 | 69 | 1016.7 |
| 20260902103441 | 80 | 336 | 0.0 | 0.0 | 0.00 | 0.00 | 0.00 | 69 | 1016.7 |
| 20260902102937 | 79 | 62 | 0.0 | 0.0 | 0.00 | 0.00 | 0.00 | 69 | 1016.6 |
| 20260902102428 | 79 | 62 | 0.0 | 0.0 | 0.00 | 0.00 | 0.00 | 67 | 1016.8 |
| 20260902101924 | 80 | 62 | 0.0 | 0.0 | 0.00 | 0.00 | 0.00 | 67 | 1016.8 |
| 20260902101418 | 79 | 103 | 0.0 | 0.0 | 0.00 | 0.00 | 0.00 | 67 | 1016.6 |
| 20260902100917 | 80 | 103 | 0.0 | 0.0 | 0.00 | 0.00 | 0.00 | 68 | 1016.7 |
| 20260902100412 | 80 | 104 | 0.0 | 1.0 | 0.00 | 0.00 | 0.00 | 68 | 1016.4 |
| 20260902095907 | 80 | 89 | 0.0 | 2.0 | 0.00 | 0.00 | 0.00 | 67 | 1016.9 |
| 20260902095407 | 80 | 89 | 0.0 | 0.0 | 0.00 | 0.00 | 0.00 | 66 | 1016.6 |
| 20260902094901 | 80 | 89 | 0.0 | 0.0 | 0.00 | 0.00 | 0.00 | 65 | 1016.6 |
| 20260902094357 | 81 | 46 | 0.0 | 1.0 | 0.00 | 0.00 | 0.00 | 66 | 1016.4 |
| 20260902093856 | 81 | 35 | 0.0 | 1.0 | 0.00 | 0.00 | 0.00 | 66 | 1016.7 |
| 20260902093352 | 81 | 337 | 0.0 | 1.0 | 0.00 | 0.00 | 0.00 | 65 | 1016.5 |
| 20260902092850 | 82 | 333 | 0.0 | 0.0 | 0.00 | 0.00 | 0.00 | 64 | 1016.7 |
| 20260902092347 | 82 | 355 | 0.0 | 2.0 | 0.00 | 0.00 | 0.00 | 63 | 1016.7 |
| 20260902091846 | 82 | 66 | 0.0 | 1.0 | 0.00 | 0.00 | 0.00 | 64 | 1016.4 |
| 20260902091341 | 82 | 82 | 1.0 | 2.0 | 0.00 | 0.00 | 0.00 | 63 | 1016.5 |
| 20260902090838 | 82 | 75 | 0.0 | 0.0 | 0.00 | 0.00 | 0.00 | 61 | 1016.6 |
| 20260902090337 | 82 | 75 | 0.0 | 0.0 | 0.00 | 0.00 | 0.00 | 62 | 1016.6 |
| 20260902085837 | 82 | 75 | 0.0 | 0.0 | 0.00 | 0.00 | 0.00 | 61 | 1016.8 |
| 20260902085332 | 82 | 75 | 0.0 | 0.0 | 0.00 | 0.00 | 0.00 | 61 | 1016.6 |
| 20260902084828 | 83 | 32 | 0.0 | 0.0 | 0.00 | 0.00 | 0.00 | 61 | 1016.7 |
| 20260902084324 | 84 | 322 | 0.0 | 1.0 | 0.00 | 0.00 | 0.00 | 60 | 1016.7 |
| 20260902083819 | 84 | 142 | 0.0 | 2.0 | 0.00 | 0.00 | 0.00 | 58 | 1016.8 |
| 20260902083314 | 83 | 140 | 0.0 | 1.0 | 0.00 | 0.00 | 0.00 | 60 | 1016.6 |
| 20260902082809 | 82 | 104 | 0.0 | 0.0 | 0.00 | 0.00 | 0.00 | 62 | 1016.8 |
| 20260902082309 | 82 | 104 | 0.0 | 0.0 | 0.00 | 0.00 | 0.00 | 62 | 1016.6 |
| 20260902081802 | 83 | 104 | 0.0 | 0.0 | 0.00 | 0.00 | 0.00 | 61 | 1016.6 |
| 20260902081256 | 83 | 104 | 0.0 | 0.0 | 0.00 | 0.00 | 0.00 | 61 | 1016.6 |
| 20260902080751 | 84 | 93 | 0.0 | 1.0 | 0.00 | 0.00 | 0.00 | 60 | 1016.8 |
| 20260902080249 | 84 | 104 | 0.0 | 0.0 | 0.00 | 0.00 | 0.00 | 59 | 1016.9 |
| 20260902075747 | 84 | 114 | 0.0 | 1.0 | 0.00 | 0.00 | 0.00 | 59 | 1016.8 |
| 20260902075243 | 84 | 113 | 0.0 | 1.0 | 0.00 | 0.00 | 0.00 | 58 | 1016.4 |
| 20260902074738 | 85 | 103 | 0.0 | 0.0 | 0.00 | 0.00 | 0.00 | 57 | 1016.7 |
| 20260902074233 | 85 | 89 | 0.0 | 1.0 | 0.00 | 0.00 | 0.00 | 57 | 1016.5 |
| 20260902073729 | 85 | 335 | 0.0 | 1.0 | 0.00 | 0.00 | 0.00 | 57 | 1016.6 |
| 20260902073224 | 85 | 209 | 0.0 | 0.0 | 0.00 | 0.00 | 0.00 | 56 | 1016.5 |
| 20260902072720 | 85 | 209 | 0.0 | 1.0 | 0.00 | 0.00 | 0.00 | 56 | 1016.6 |
| 20260902072216 | 86 | 242 | 0.0 | 0.0 | 0.00 | 0.00 | 0.00 | 56 | 1016.3 |
| 20260902071712 | 86 | 242 | 0.0 | 1.0 | 0.00 | 0.00 | 0.00 | 54 | 1016.3 |
| 20260902071208 | 86 | 255 | 0.0 | 1.0 | 0.00 | 0.00 | 0.00 | 55 | 1016.3 |
| 20260902070704 | 86 | 135 | 0.0 | 1.0 | 0.00 | 0.00 | 0.00 | 54 | 1016.4 |
| 20260902070203 | 87 | 129 | 0.0 | 0.0 | 0.00 | 0.00 | 0.00 | 53 | 1016.4 |
| 20260902065702 | 87 | 117 | 0.0 | 1.0 | 0.00 | 0.00 | 0.00 | 53 | 1016.3 |
| 20260902065158 | 86 | 212 | 0.0 | 2.0 | 0.00 | 0.00 | 0.00 | 54 | 1016.4 |
| 20260902064653 | 86 | 269 | 0.0 | 2.0 | 0.00 | 0.00 | 0.00 | 57 | 1016.2 |
| 20260902064148 | 86 | 242 | 0.0 | 1.0 | 0.00 | 0.00 | 0.00 | 57 | 1016.4 |
| 20260902063644 | 86 | 147 | 0.0 | 0.0 | 0.00 | 0.00 | 0.00 | 56 | 1016.1 |
| 20260902063138 | 86 | 147 | 0.0 | 0.0 | 0.00 | 0.00 | 0.00 | 56 | 1016.3 |
| 20260902062638 | 86 | 147 | 0.0 | 0.0 | 0.00 | 0.00 | 0.00 | 57 | 1016.1 |
| 20260902062133 | 86 | 104 | 0.0 | 0.0 | 0.00 | 0.00 | 0.00 | 57 | 1016.2 |
| 20260902061632 | 86 | 104 | 0.0 | 0.0 | 0.00 | 0.00 | 0.00 | 54 | 1016.2 |
| 20260902061128 | 86 | 135 | 0.0 | 1.0 | 0.00 | 0.00 | 0.00 | 54 | 1016.1 |
| 20260902060624 | 86 | 104 | 0.0 | 0.0 | 0.00 | 0.00 | 0.00 | 54 | 1016.0 |
| 20260902060120 | 86 | 104 | 0.0 | 1.0 | 0.00 | 0.00 | 0.00 | 55 | 1016.1 |
| 20260902055616 | 86 | 66 | 0.0 | 1.0 | 0.00 | 0.00 | 0.00 | 56 | 1016.2 |
| 20260902055111 | 86 | 70 | 0.0 | 1.0 | 0.00 | 0.00 | 0.00 | 55 | 1016.3 |
| 20260902054606 | 86 | 117 | 0.0 | 0.0 | 0.00 | 0.00 | 0.00 | 54 | 1016.2 |
| 20260902054102 | 87 | 117 | 0.0 | 0.0 | 0.00 | 0.00 | 0.00 | 53 | 1016.1 |
| 20260902053557 | 87 | 117 | 0.0 | 1.0 | 0.00 | 0.00 | 0.00 | 52 | 1016.2 |
| 20260902053056 | 87 | 73 | 1.0 | 1.0 | 0.00 | 0.00 | 0.00 | 53 | 1016.2 |
| 20260902052551 | 87 | 256 | 0.0 | 0.0 | 0.00 | 0.00 | 0.00 | 52 | 1016.3 |
| 20260902052046 | 88 | 256 | 0.0 | 1.0 | 0.00 | 0.00 | 0.00 | 51 | 1016.3 |
| 20260902051541 | 88 | 142 | 0.0 | 1.0 | 0.00 | 0.00 | 0.00 | 51 | 1016.2 |
| 20260902051040 | 88 | 212 | 0.0 | 2.0 | 0.00 | 0.00 | 0.00 | 51 | 1016.3 |
| 20260902050535 | 89 | 210 | 0.0 | 1.0 | 0.00 | 0.00 | 0.00 | 50 | 1016.1 |
| 20260902050030 | 89 | 189 | 0.0 | 3.0 | 0.00 | 0.00 | 0.00 | 50 | 1016.3 |
| 20260902045525 | 86 | 196 | 2.0 | 3.0 | 0.00 | 0.00 | 0.00 | 54 | 1016.3 |
| 20260902045021 | 85 | 104 | 0.0 | 0.0 | 0.00 | 0.00 | 0.00 | 58 | 1016.1 |
| 20260902044515 | 85 | 104 | 0.0 | 0.0 | 0.00 | 0.00 | 0.00 | 58 | 1016.1 |
| 20260902044011 | 85 | 104 | 0.0 | 0.0 | 0.00 | 0.00 | 0.00 | 57 | 1016.1 |
| 20260902043507 | 86 | 104 | 0.0 | 0.0 | 0.00 | 0.00 | 0.00 | 56 | 1015.8 |
| 20260902043006 | 86 | 104 | 0.0 | 0.0 | 0.00 | 0.00 | 0.00 | 56 | 1016.0 |
| 20260902042501 | 86 | 104 | 0.0 | 0.0 | 0.00 | 0.00 | 0.00 | 55 | 1016.0 |
| 20260902041956 | 86 | 104 | 0.0 | 0.0 | 0.00 | 0.00 | 0.00 | 54 | 1016.0 |
| 20260902041450 | 86 | 104 | 0.0 | 0.0 | 0.00 | 0.00 | 0.00 | 55 | 1016.0 |
| 20260902040950 | 86 | 104 | 0.0 | 0.0 | 0.00 | 0.00 | 0.00 | 55 | 1015.6 |
| 20260902040444 | 86 | 104 | 0.0 | 0.0 | 0.00 | 0.00 | 0.00 | 55 | 1015.8 |
| 20260902035943 | 86 | 104 | 0.0 | 0.0 | 0.00 | 0.00 | 0.00 | 55 | 1015.6 |
| 20260902035439 | 87 | 104 | 0.0 | 0.0 | 0.00 | 0.00 | 0.00 | 54 | 1015.8 |
| 20260902034938 | 87 | 104 | 0.0 | 0.0 | 0.00 | 0.00 | 0.00 | 55 | 1015.5 |
| 20260902034434 | 87 | 104 | 0.0 | 1.0 | 0.00 | 0.00 | 0.00 | 55 | 1015.5 |
| 20260902033932 | 87 | 117 | 0.0 | 0.0 | 0.00 | 0.00 | 0.00 | 56 | 1015.4 |
| 20260902033432 | 87 | 117 | 0.0 | 0.0 | 0.00 | 0.00 | 0.00 | 53 | 1015.2 |
| 20260902032931 | 87 | 117 | 0.0 | 0.0 | 0.00 | 0.00 | 0.00 | 53 | 1015.2 |
| 20260902032426 | 87 | 117 | 0.0 | 0.0 | 0.00 | 0.00 | 0.00 | 53 | 1015.2 |
| 20260902031920 | 87 | 117 | 0.0 | 0.0 | 0.00 | 0.00 | 0.00 | 54 | 1015.0 |
| 20260902031416 | 88 | 117 | 0.0 | 0.0 | 0.00 | 0.00 | 0.00 | 54 | 1014.9 |
| 20260902030913 | 88 | 117 | 0.0 | 0.0 | 0.00 | 0.00 | 0.00 | 51 | 1014.7 |